User: anonymous   Login
Location: Luz Observatory
(34.5000°N, 117.2833°W)
Time: 16:47:00
(UTC-07:00)
Language:

Cosmos 1452 Rocket - Orbit

View from above orbital plane
View from above orbital plane
View from above satellite
View from above satellite

Ground track
Ground track

The orbit data is extracted from the following two-line orbital elements,

1 13992U 83031B   15084.43089686  .00000261  00000-0  98891-4 0  9999
2 13992 074.0525 061.3204 0006329 249.3714 270.8319 14.35905533671850
Epoch (UTC): 25 March 2015 10:20:29
Eccentricity: 0.0006329
inclination: 74.0525°
perigee height: 767 km
apogee height: 776 km
right ascension of ascending node: 61.3204°
argument of perigee: 249.3714°
revolutions per day: 14.35905533
mean anomaly at epoch: 270.8319°
orbit number at epoch: 67185

The dashed part of the orbit path shows where the satellite is in the earth's shadow,  

DLR